GW6769 Weather Reports


Display with metric or nautical units.
time (UTC)temp
F
wind
direction
speed
MPH
gust
MPH
rain 1hr
in
rain 24hr
in
rain mn
in
humidity
%
barometer
mb
20260506214904 65 330 13.0 26.0 0.00 0.00 0.00 80 1010.9
20260506213906 66 333 15.0 31.0 0.00 0.00 0.00 79 1010.7
20260506213404 66 324 20.0 32.0 0.00 0.00 0.00 79 1010.7
20260506212905 67 322 18.0 32.0 0.00 0.00 0.00 77 1010.6
20260506211405 68 343 13.0 31.0 0.00 0.00 0.00 77 1010.6
20260506210905 68 328 19.0 31.0 0.00 0.00 0.00 77 1010.7
20260506210405 69 324 15.0 31.0 0.00 0.00 0.00 77 1010.6
20260506205405 70 323 21.0 31.0 0.00 0.00 0.00 76 1010.7
20260506204905 70 316 24.0 31.0 0.00 0.00 0.00 76 1010.6
20260506203905 71 329 14.0 31.0 0.00 0.00 0.00 76 1010.8
20260506203405 71 328 19.0 31.0 0.00 0.00 0.00 77 1011.0
20260506202405 71 316 16.0 28.0 0.00 0.00 0.00 78 1011.0
20260506201905 71 343 15.0 28.0 0.00 0.00 0.00 77 1011.0
20260506201406 72 351 13.0 25.0 0.00 0.00 0.00 76 1011.0
20260506200905 72 338 15.0 30.0 0.00 0.00 0.00 77 1010.9
20260506200405 72 324 17.0 30.0 0.00 0.00 0.00 78 1010.7
20260506195905 72 340 19.0 29.0 0.00 0.00 0.00 77 1010.7
20260506194905 72 313 21.0 32.0 0.00 0.00 0.00 77 1010.5
20260506194406 73 331 20.0 32.0 0.00 0.00 0.00 78 1010.4
20260506193905 73 316 18.0 31.0 0.00 0.00 0.00 79 1010.4
20260506193405 73 308 22.0 31.0 0.00 0.00 0.00 78 1010.3
20260506192906 76 321 21.0 31.0 0.00 0.00 0.00 76 1010.2
20260506192405 77 327 16.0 26.0 0.00 0.00 0.00 74 1010.2
20260506191905 79 335 14.0 22.0 0.00 0.00 0.00 71 1010.3
20260506190905 78 331 11.0 18.0 0.00 0.00 0.00 75 1010.4
20260506190406 78 341 7.0 12.0 0.00 0.00 0.00 76 1010.6
20260506185906 78 9 5.0 10.0 0.00 0.00 0.00 76 1010.8
20260506184906 78 11 3.0 14.0 0.00 0.00 0.00 77 1010.6
20260506184406 78 24 6.0 14.0 0.00 0.00 0.00 77 1010.5
20260506183906 77 82 7.0 14.0 0.00 0.00 0.00 76 1010.5
20260506182905 78 47 7.0 10.0 0.00 0.00 0.00 76 1010.5
20260506182405 77 1 3.0 14.0 0.00 0.00 0.00 78 1010.6
20260506181905 76 338 5.0 14.0 0.00 0.00 0.00 78 1010.5
20260506181405 75 9 6.0 14.0 0.00 0.00 0.00 78 1010.5
20260506180906 75 24 5.0 10.0 0.00 0.00 0.00 79 1010.5
20260506180406 74 30 4.0 12.0 0.00 0.00 0.00 81 1010.5
20260506175906 74 88 7.0 12.0 0.00 0.00 0.00 80 1010.5
20260506174905 73 70 7.0 14.0 0.00 0.00 0.00 81 1010.7
20260506173905 72 84 6.0 12.0 0.00 0.00 0.00 82 1010.7
20260506173405 71 51 6.0 14.0 0.00 0.00 0.00 83 1010.7
20260506172907 71 87 5.0 14.0 0.00 0.00 0.00 82 1010.7
20260506172406 71 79 5.0 12.0 0.00 0.00 0.00 82 1010.9
20260506171905 70 86 4.0 13.0 0.00 0.00 0.00 84 1011.0
20260506171406 70 18 6.0 15.0 0.00 0.00 0.00 83 1010.9
20260506170907 70 6 8.0 15.0 0.00 0.00 0.00 83 1010.8
20260506170406 70 36 7.0 14.0 0.00 0.00 0.00 84 1010.8
20260506165907 69 10 7.0 13.0 0.00 0.00 0.00 84 1010.9
20260506164908 69 14 7.0 18.0 0.00 0.00 0.00 84 1011.1
20260506163906 66 356 6.0 20.0 0.00 0.00 0.00 89 1011.2
20260506163405 66 6 7.0 20.0 0.00 0.00 0.00 89 1011.5
20260506162407 66 354 12.0 35.0 0.00 0.00 0.00 88 1011.5
20260506161905 67 336 20.0 35.0 0.00 0.00 0.00 87 1011.6
20260506161406 68 343 18.0 29.0 0.00 0.00 0.00 86 1011.8
20260506160907 70 337 16.0 29.0 0.00 0.00 0.00 86 1011.7
20260506160406 72 321 17.0 29.0 0.00 0.00 0.00 84 1011.5
20260506155906 75 345 13.0 25.0 0.00 0.00 0.00 82 1011.2
20260506155405 76 91 3.0 9.0 0.00 0.00 0.00 89 1011.2
20260506154906 76 108 5.0 9.0 0.00 0.00 0.00 89 1011.2
20260506154405 76 98 5.0 8.0 0.00 0.00 0.00 89 1011.0
20260506153905 76 57 3.0 8.0 0.00 0.00 0.00 89 1011.0
20260506153406 76 79 3.0 5.0 0.00 0.00 0.00 89 1010.9
20260506152906 76 75 3.0 5.0 0.00 0.00 0.00 89 1010.7
20260506152406 76 134 3.0 8.0 0.00 0.00 0.00 89 1010.5
20260506151406 76 97 4.0 6.0 0.00 0.00 0.00 89 1010.3
20260506150905 76 114 3.0 6.0 0.00 0.00 0.00 89 1010.2
20260506150405 76 145 2.0 8.0 0.00 0.00 0.00 89 1010.0
20260506145906 76 128 5.0 8.0 0.00 0.00 0.00 89 1009.9
20260506144906 76 138 3.0 8.0 0.00 0.00 0.00 90 1009.7
20260506144406 76 159 3.0 9.0 0.00 0.00 0.00 90 1009.8
20260506143906 76 128 4.0 12.0 0.00 0.00 0.00 89 1009.8
20260506143405 76 185 3.0 12.0 0.00 0.00 0.00 90 1009.5
20260506142906 76 124 5.0 12.0 0.00 0.00 0.00 90 1009.4
20260506142406 76 137 7.0 12.0 0.00 0.00 0.00 91 1009.2
20260506141907 75 125 7.0 12.0 0.00 0.00 0.00 91 1009.2
20260506141406 75 134 6.0 12.0 0.00 0.00 0.00 91 1009.7
20260506140903 75 127 4.0 7.0 0.00 0.00 0.00 91 1009.7
20260506140403 75 110 3.0 5.0 0.00 0.00 0.00 91 1009.8
20260506135903 75 113 2.0 9.0 0.00 0.00 0.00 91 1009.7
20260506135404 75 130 3.0 9.0 0.00 0.00 0.00 91 1009.2
20260506134903 75 123 5.0 12.0 0.00 0.00 0.00 92 1008.8
20260506134403 74 130 6.0 12.0 0.00 0.00 0.00 92 1008.8
20260506133903 74 125 5.0 12.0 0.00 0.00 0.00 92 1008.9
20260506133403 74 128 6.0 13.0 0.00 0.00 0.00 92 1008.8
20260506132903 74 139 6.0 13.0 0.00 0.00 0.00 92 1008.7
20260506132403 74 123 6.0 12.0 0.00 0.00 0.00 92 1008.8
20260506131903 74 128 6.0 12.0 0.00 0.00 0.00 92 1008.8
20260506131403 74 124 6.0 12.0 0.00 0.00 0.00 92 1008.8
20260506130904 74 122 6.0 12.0 0.00 0.00 0.00 92 1008.7
20260506130403 74 124 7.0 12.0 0.00 0.00 0.00 92 1008.5
20260506125404 74 128 6.0 12.0 0.00 0.00 0.00 92 1008.5
20260506124903 74 130 6.0 12.0 0.00 0.00 0.00 92 1008.5
20260506124404 74 125 5.0 9.0 0.00 0.00 0.00 92 1008.4
20260506123903 74 120 5.0 8.0 0.00 0.00 0.00 92 1008.5
20260506123404 74 128 4.0 7.0 0.00 0.00 0.00 92 1008.5
20260506122404 74 124 3.0 6.0 0.00 0.00 0.00 92 1008.5
20260506121904 74 121 2.0 5.0 0.00 0.00 0.00 92 1008.5
20260506121403 74 123 3.0 5.0 0.00 0.00 0.00 92 1008.6
20260506120904 74 116 2.0 5.0 0.00 0.00 0.00 92 1008.5
20260506120404 74 123 3.0 5.0 0.00 0.00 0.00 92 1008.5
20260506115904 74 123 2.0 5.0 0.00 0.00 0.00 92 1008.4
20260506115403 74 112 3.0 5.0 0.00 0.00 0.00 91 1008.3
20260506114404 74 128 3.0 3.0 0.00 0.00 0.00 91 1008.4
20260506113905 74 123 1.0 5.0 0.00 0.00 0.00 91 1008.4
20260506113403 74 132 2.0 5.0 0.00 0.00 0.00 91 1008.4
20260506112904 74 127 2.0 5.0 0.00 0.00 0.00 91 1008.4
20260506112404 74 117 3.0 5.0 0.00 0.00 0.00 91 1008.4
20260506111904 74 111 3.0 5.0 0.00 0.00 0.00 91 1008.4
20260506111403 74 124 2.0 5.0 0.00 0.00 0.00 91 1008.4
20260506110904 74 123 2.0 5.0 0.00 0.00 0.00 91 1008.3
20260506110404 74 130 1.0 3.0 0.00 0.00 0.00 91 1008.2
20260506105904 74 128 2.0 5.0 0.00 0.00 0.00 91 1008.2
20260506105404 74 137 2.0 5.0 0.00 0.00 0.00 91 1008.1
20260506104903 74 124 2.0 9.0 0.00 0.00 0.00 91 1008.0
20260506104403 74 138 3.0 9.0 0.00 0.00 0.00 91 1008.0
20260506103903 74 139 3.0 9.0 0.00 0.00 0.00 91 1007.9
20260506103403 74 128 3.0 10.0 0.00 0.00 0.00 91 1007.9
20260506102903 74 155 5.0 10.0 0.00 0.00 0.00 91 1007.7
20260506102403 74 149 2.0 12.0 0.00 0.00 0.00 91 1007.7
20260506101404 74 133 5.0 12.0 0.00 0.00 0.00 91 1007.7
20260506100903 74 148 3.0 14.0 0.00 0.00 0.00 91 1007.7
20260506100403 74 142 5.0 14.0 0.00 0.00 0.00 91 1007.7
20260506095904 74 135 5.0 12.0 0.00 0.00 0.00 91 1007.6
20260506095404 74 156 5.0 13.0 0.00 0.00 0.00 91 1007.6
20260506094904 74 131 4.0 13.0 0.00 0.00 0.00 91 1007.6
20260506093905 74 138 5.0 10.0 0.00 0.00 0.00 91 1007.4
20260506093403 74 150 5.0 12.0 0.00 0.00 0.00 91 1007.4
20260506092404 74 142 6.0 15.0 0.00 0.00 0.00 91 1007.3
20260506091904 74 131 6.0 15.0 0.00 0.00 0.00 91 1007.3
20260506091404 74 154 6.0 15.0 0.00 0.00 0.00 91 1007.3
20260506090905 74 147 6.0 13.0 0.00 0.00 0.00 91 1007.2
20260506090404 74 131 5.0 13.0 0.00 0.00 0.00 91 1007.1
20260506085904 74 156 6.0 13.0 0.00 0.00 0.00 91 1007.2
20260506085404 74 141 5.0 12.0 0.00 0.00 0.00 91 1007.2
20260506084904 74 128 5.0 12.0 0.00 0.00 0.00 91 1007.1
20260506084404 74 139 4.0 12.0 0.00 0.00 0.00 91 1007.2
20260506083904 74 120 4.0 12.0 0.00 0.00 0.00 91 1007.2
20260506083404 74 137 5.0 14.0 0.00 0.00 0.00 91 1007.2
20260506082905 74 149 7.0 14.0 0.00 0.00 0.00 91 1007.2
20260506082405 74 152 6.0 14.0 0.00 0.00 0.00 91 1007.3
20260506081904 74 140 7.0 14.0 0.00 0.00 0.00 91 1007.2
20260506073405 75 143 7.0 16.0 0.00 0.00 0.00 90 1007.6
20260506072404 75 143 6.0 14.0 0.00 0.00 0.00 90 1007.6
20260506071904 75 146 7.0 14.0 0.00 0.00 0.00 90 1007.7
20260506071404 75 140 7.0 17.0 0.00 0.00 0.00 90 1007.8
20260506070904 75 147 6.0 17.0 0.00 0.00 0.00 90 1007.7
20260506070404 75 140 6.0 17.0 0.00 0.00 0.00 90 1007.9
20260506062404 75 147 9.0 20.0 0.00 0.00 0.00 90 1007.7
20260506060904 75 149 9.0 23.0 0.00 0.00 0.00 90 1007.8
20260506060404 75 137 9.0 21.0 0.00 0.00 0.00 90 1007.8
20260506051404 76 141 9.0 16.0 0.00 0.00 0.00 89 1007.8
20260506044905 76 148 9.0 16.0 0.00 0.00 0.00 89 1007.9
20260506044405 76 143 6.0 14.0 0.00 0.00 0.00 89 1007.9
20260506043904 76 148 7.0 14.0 0.00 0.00 0.00 89 1007.9
20260506043404 76 138 7.0 13.0 0.00 0.00 0.00 88 1007.9
20260506042904 76 142 6.0 20.0 0.00 0.00 0.00 88 1007.9
20260506042404 76 143 9.0 20.0 0.00 0.00 0.00 88 1007.7
20260506041904 76 141 8.0 20.0 0.00 0.00 0.00 88 1007.6
20260506041405 76 137 9.0 20.0 0.00 0.00 0.00 88 1007.7
20260506040904 76 134 7.0 20.0 0.00 0.00 0.00 88 1007.7
20260506040405 76 130 9.0 20.0 0.00 0.00 0.00 88 1007.6
20260506035904 76 137 10.0 18.0 0.00 0.00 0.00 88 1007.5
20260506035404 76 136 10.0 18.0 0.00 0.00 0.00 88 1007.4
20260506034904 76 135 8.0 16.0 0.00 0.00 0.00 88 1007.4
20260506034405 76 130 7.0 16.0 0.00 0.00 0.00 88 1007.4
20260506033905 76 133 7.0 15.0 0.00 0.00 0.00 88 1007.3
20260506033405 76 140 9.0 16.0 0.00 0.00 0.00 88 1007.2
20260506032405 76 139 7.0 15.0 0.00 0.00 0.00 88 1007.0
20260506031405 76 139 7.0 13.0 0.00 0.00 0.00 87 1007.0
20260506030904 76 138 6.0 12.0 0.00 0.00 0.00 87 1007.0
20260506030404 77 134 6.0 15.0 0.00 0.00 0.00 87 1006.8
20260506025906 77 135 7.0 15.0 0.00 0.00 0.00 86 1006.9
20260506024904 77 131 7.0 15.0 0.00 0.00 0.00 86 1006.7
20260506024404 77 130 8.0 13.0 0.00 0.00 0.00 85 1006.6
20260506023905 77 143 7.0 13.0 0.00 0.00 0.00 85 1006.5
20260506023409 77 137 6.0 12.0 0.00 0.00 0.00 85 1006.3
20260506022906 77 130 7.0 12.0 0.00 0.00 0.00 84 1006.2
20260506022404 78 137 6.0 15.0 0.00 0.00 0.00 84 1006.1
20260506021904 78 130 8.0 15.0 0.00 0.00 0.00 84 1006.0
20260506021405 78 134 7.0 14.0 0.00 0.00 0.00 84 1005.9
20260506020905 78 129 9.0 14.0 0.00 0.00 0.00 84 1005.9
20260506015904 78 131 7.0 15.0 0.00 0.00 0.00 83 1005.7
20260506015405 78 131 7.0 13.0 0.00 0.00 0.00 83 1005.7
20260506014904 78 134 6.0 10.0 0.00 0.00 0.00 83 1005.6
20260506014405 78 127 5.0 10.0 0.00 0.00 0.00 82 1005.7
20260506013906 78 128 6.0 12.0 0.00 0.00 0.00 82 1005.6
20260506013404 79 129 6.0 13.0 0.00 0.00 0.00 82 1005.5
20260506012905 79 129 6.0 13.0 0.00 0.00 0.00 81 1005.5
20260506012406 79 129 6.0 13.0 0.00 0.00 0.00 81 1005.7
20260506011905 79 134 6.0 10.0 0.00 0.00 0.00 80 1005.7
20260506010405 80 132 5.0 9.0 0.00 0.00 0.00 79 1005.7
20260506005905 80 136 5.0 8.0 0.00 0.00 0.00 78 1005.8
20260506004405 81 132 4.0 9.0 0.00 0.00 0.00 77 1005.7
20260506003905 81 133 4.0 9.0 0.00 0.00 0.00 76 1005.5
20260506003405 82 132 5.0 9.0 0.00 0.00 0.00 76 1005.5
20260506002905 82 130 3.0 8.0 0.00 0.00 0.00 75 1005.5
20260506002405 82 140 3.0 7.0 0.00 0.00 0.00 75 1005.5
20260506001904 82 141 4.0 8.0 0.00 0.00 0.00 75 1005.5
20260506001404 82 139 5.0 10.0 0.00 0.00 0.00 74 1005.5
20260506000405 82 140 6.0 12.0 0.00 0.00 0.00 74 1005.4
20260505235904 82 149 3.0 16.0 0.00 0.00 0.00 73 1005.4
20260505235405 82 148 7.0 16.0 0.00 0.00 0.00 73 1005.3
20260505234404 83 136 6.0 16.0 0.00 0.00 0.00 73 1005.1
20260505233905 83 145 7.0 16.0 0.00 0.00 0.00 73 1005.2
20260505233405 83 146 6.0 15.0 0.00 0.00 0.00 73 1005.3
20260505232905 83 138 6.0 15.0 0.00 0.00 0.00 73 1005.2
20260505232405 83 133 7.0 15.0 0.00 0.00 0.00 73 1005.2
20260505231405 83 133 7.0 20.0 0.00 0.00 0.00 70 1005.3
20260505230905 83 135 7.0 20.0 0.00 0.00 0.00 71 1005.2
20260505230405 83 132 6.0 16.0 0.00 0.00 0.00 72 1005.1
20260505225906 83 142 7.0 16.0 0.00 0.00 0.00 71 1005.1
20260505225405 83 136 7.0 13.0 0.00 0.00 0.00 71 1005.0
20260505224404 83 140 9.0 17.0 0.00 0.00 0.00 71 1005.1
20260505223905 83 142 8.0 18.0 0.00 0.00 0.00 71 1005.0
20260505223405 83 150 7.0 20.0 0.00 0.00 0.00 71 1005.0
20260505222905 83 144 8.0 20.0 0.00 0.00 0.00 70 1005.0
20260505222404 83 146 7.0 16.0 0.00 0.00 0.00 70 1005.0
20260505221906 84 131 7.0 20.0 0.00 0.00 0.00 70 1005.0
20260505221405 84 142 9.0 20.0 0.00 0.00 0.00 71 1005.0
20260505220905 84 138 9.0 17.0 0.00 0.00 0.00 68 1005.2
20260505220404 85 136 8.0 16.0 0.00 0.00 0.00 66 1005.1
20260505215906 85 108 6.0 17.0 0.00 0.00 0.00 70 1005.2